DELTA 1 DEB, 39100

Orbit data source: Space-Track

DELTA 1 DEB, 39100 is space debris in LEO originally from a launch on Thu, 14 Jul 1977 UTC launched from the Air Force Eastern Test Range (AFETR). Debris objects in space refer to the collection of defunct objects orbiting the Earth. Examples of debris include non-operational satellites, rocket bodies, and fragments generated from explosions, collisions, or faulty payload assembly.

Not visible in the next 10 days
Identifier
39100, 1977-065GM
Orbit
LEO
Country
Flag of USUS
Related business
Manufacturer
Unknown
Mission
Spacecraft
Bus & Motor
Unknown
Mass
Unknown
Launch date (UTC)
1977-07-14 (49 years ago)
Launch vehicle
Unknown
Launch site
Air Force Eastern Test Range (AFETR)
Object type
Payload
Rocket body
Debris
Shape & HBR
Unknown shape, 0.1 m
Radar Cross Section
Small (<0.1 m²)

Expand to show TLE details & history
Last TLE update: 7 hours ago

TLE from 7 hours ago
0 DELTA 1 DEB
1 39100U 77065GM  26133.12706740  .00006387  00000-0  48622-3 0  9999
2 39100  29.2737 290.2266 0334076  64.7583 298.7252 14.65319119726974
Epoch: 2026-05-13T03:02Z
TLE epoch observation values (Epoch: 2026-05-13T03:02:58.623Z)
Latitude
Longitude
13.59078°
Altitude
567.39 km
Speed
7.637 km/s
True Right ascension
19h 20m 54s
True Declination
0° 00' 00"
Sunlit
Object was in full shadow at epoch
Visualization orbit readout
Latitude
Unknown
Longitude
Unknown
Altitude
Unknown
Speed
Unknown
Apparent Right ascension
Unknown
Apparent Declination
Unknown
Sunlit
N/A
Visualization observer readout
Local Sidereal Time
18:20:10
Azimuth
Unknown
Elevation
Unknown
Doppler factor
Unknown
Orbital elements
Apogee altitude
915.866 km
Perigee altitude
444.27 km
Semi-major axis
7,058.205 km
Eccentricity
0.03341
Inclination
29.2737°
RAAN
290.2266°
Arg. of periapsis
64.7583°
True anomaly
295.30144°
Mean anomaly
298.7252°
Eccentric anomaly
297.02002°
Mean motion
3.66017 °/min
Orbital period
98.36 mins
BSTAR
0.00048622
Loading maneuver chart data...
Computing Atmospheric mass density...

Documentation

Showing up to 5 results
|